Погода в Дябыле

Россия / Республика Саха (Якутия)     61°54′28″N   132°21′13″E
темп.,
°C
ветер,
м/с
пор.,
м/с
влажн.,
%
обл.,
%
осадки,
мм/ч
давл.,
гПа
погр.,
м
3 марта, ср
ср300:00−29зсз1198100 0.1 102319
03:00−30з1198100 0.1 102220
06:00−30з1198100 0.1 102219
09:00−29з1295100 0.1 1021189
12:00−27з2386100 0.1 1020562
15:00−26зсз2388100 0.1 1018595
18:00−28зсз2297100 0.1 101863
21:00−29зсз2498100 0.1 1018173
4 марта, чт
чт400:00−30з2498100 0.1 1017127
03:00−31з3598100 0.2 1016227
06:00−32з3698100 0.1 1016232
09:00−31зсз4693100 0.2 1016606
12:00−30зсз4588100 0.1 1017804
15:00−29зсз4587100 0.1 1018877
18:00−32зсз3694100 0.1 1020140
21:00−35зсз3597100 0.1 102195
5 марта, пт
пт500:00−38зсз359889 0.0 102389
03:00−40з359782 0.0 102490
06:00−41з359687 0.0 102692
09:00−38зсз479389 0.0 1026292
12:00−33з469299 0.0 1027412
15:00−30зсз469199 0.0 1027508
18:00−33з3496100 0.0 102762
21:00−35з349989 0.0 102884
6 марта, сб
сб600:00−36з359731 0.0 102787
03:00−38з349725 0.0 102758
06:00−38з339770 0.0 102735
09:00−35з359583 0.0 1027203
12:00−30зсз238794 0.0 1027392
15:00−27з238597 0.0 1026548
18:00−31з229799 0.0 102619
21:00−35сз1110054 0.0 102619
7 марта, вс
вс700:00−36вюв001000 0.0 102619
03:00−36ю1110010 0.0 102619
06:00−37ююв1110071 0.0 102619
09:00−32юв129446 0.0 1026109
12:00−27юв118754 0.0 1025350
15:00−25в118376 0.0 1024424
18:00−29всв229396 0.0 102419
21:00−30вюв239692 0.0 102419